Los Angeles, CA

6:04 AM PST on November 24, 2017 (GMT -0800)
Los Angeles International

Weather History for KLAX - October, 2012

Change the Weather History Date:

Thursday, October 25, 2012

  Actual Average Record
Temperature  
Mean Temperature 73 °F 65 °F  
Max Temperature 81 °F 72 °F 100 °F (2017)
Min Temperature 65 °F 58 °F 48 °F (1971)
Degree Days  
Heating Degree Days 0 2  
Month to date heating degree days 4 24  
Since 1 July heating degree days 9 33  
Cooling Degree Days 8 2  
Month to date cooling degree days 117 57  
Year to date cooling degree days 686 525  
Growing Degree Days 22 (Base 50)    
Moisture  
Dew Point 41 °F    
Average Humidity 43    
Maximum Humidity 66    
Minimum Humidity 20    
Precipitation  
Precipitation 0.00 in 0.03 in 0.19 in (1951)
Month to date precipitation 0.15 0.40  
Year to date precipitation 4.76 9.50  
Since 1 July precipitation 0.15  
Sea Level Pressure  
Sea Level Pressure 30.00 in    
Wind  
Wind Speed 14 mph (NW)    
Max Wind Speed 25 mph    
Max Gust Speed 36 mph    
Visibility 10 miles    
Events      
T = Trace of Precipitation, MM = Missing Value Source: NWS Daily Summary

Daily Weather History Graph

Daily Weather History Graph

Search for Another Location

Airport or City:

Trip Planner

Search our weather history database for the weather conditions in past years. The results will help you decide how hot, cold, wet, or windy it might be!

Date:

Astronomy

Oct. 25, 2012 Rise Set
Actual Time 7:07 AM PDT 6:07 PM PDT
Civil Twilight 6:41 AM PDT 6:32 PM PDT
Nautical Twilight 6:12 AM PDT 7:02 PM PDT
Astronomical Twilight 5:43 AM PDT 7:31 PM PDT
Moon 3:47 PM PDT (10/25) 3:18 AM PDT (10/25)
Length of Visible Light 11h 51m
Length of Day
10h 59m
Waxing Gibbous, 85% of the Moon is Illuminated
Oct 25
Waxing Gibbous
Oct 29
Full
Nov 6
Last Quarter
Nov 13
New
Nov 20
First Quarter

Hourly Weather History & Observations

Time (PDT) Temp. Dew Point Humidity Pressure Visibility Wind Dir Wind Speed Gust Speed Precip Events Conditions
12:53 AM 64.9 °F 35.1 °F 33% 30.06 in 10.0 mi NW 16.1 mph 21.9 mph N/A   Clear
1:53 AM 66.0 °F 36.0 °F 33% 30.05 in 10.0 mi NW 11.5 mph 21.9 mph N/A   Clear
2:53 AM 66.0 °F 33.1 °F 29% 30.05 in 10.0 mi NNW 10.4 mph 17.3 mph N/A   Clear
3:53 AM 66.0 °F 33.1 °F 29% 30.03 in 10.0 mi NW 8.1 mph - N/A   Clear
4:53 AM 66.0 °F 34.0 °F 30% 30.03 in 10.0 mi NW 15.0 mph 20.7 mph N/A   Clear
5:53 AM 66.9 °F 32.0 °F 27% 30.03 in 10.0 mi NNW 17.3 mph 25.3 mph N/A   Clear
6:53 AM 66.9 °F 33.1 °F 28% 30.04 in 10.0 mi NW 13.8 mph 23.0 mph N/A   Partly Cloudy
7:53 AM 66.9 °F 34.0 °F 30% 30.05 in 10.0 mi NW 13.8 mph - N/A   Partly Cloudy
8:53 AM 70.0 °F 34.0 °F 27% 30.06 in 10.0 mi NNW 11.5 mph 20.7 mph N/A   Partly Cloudy
9:53 AM 73.0 °F 34.0 °F 24% 30.05 in 10.0 mi NW 15.0 mph 21.9 mph N/A   Partly Cloudy
10:53 AM 77.0 °F 34.0 °F 21% 30.04 in 10.0 mi NW 17.3 mph 24.2 mph N/A   Clear
11:53 AM 81.0 °F 36.0 °F 20% 30.02 in 10.0 mi NW 17.3 mph 26.5 mph N/A   Clear
12:17 PM 75.2 °F 51.8 °F 44% 30.02 in 10.0 mi SW 12.7 mph 21.9 mph N/A   Clear
12:53 PM 75.9 °F 50.0 °F 40% 30.00 in 10.0 mi WNW 11.5 mph 20.7 mph N/A   Clear
1:53 PM 75.0 °F 50.0 °F 41% 29.97 in 10.0 mi West 21.9 mph - N/A   Clear
2:53 PM 73.9 °F 54.0 °F 50% 29.96 in 10.0 mi West 23.0 mph - N/A   Clear
3:53 PM 73.0 °F 55.9 °F 55% 29.94 in 10.0 mi West 19.6 mph - N/A   Clear
4:53 PM 71.1 °F 55.9 °F 59% 29.93 in 10.0 mi West 23.0 mph 28.8 mph N/A   Clear
5:53 PM 69.1 °F 57.9 °F 68% 29.94 in 10.0 mi WSW 15.0 mph - N/A   Clear
6:53 PM 75.9 °F 39.9 °F 27% 29.94 in 10.0 mi NNW 11.5 mph - N/A   Clear
7:53 PM 75.0 °F 39.9 °F 28% 29.94 in 10.0 mi NNW 12.7 mph 24.2 mph N/A   Clear
8:53 PM 73.0 °F 39.0 °F 29% 29.94 in 10.0 mi North 13.8 mph 21.9 mph N/A   Clear
9:53 PM 72.0 °F 39.0 °F 30% 29.95 in 10.0 mi NNE 11.5 mph 19.6 mph N/A   Clear
10:53 PM 72.0 °F 37.9 °F 29% 29.94 in 10.0 mi North 8.1 mph - N/A   Clear
11:53 PM 72.0 °F 37.9 °F 29% 29.95 in 10.0 mi Variable 6.9 mph - N/A   Clear